Regional Weather Roundup
Issued by NWS

Home | Current Version | Previous Version | Text Only | Print | Product List | Glossary Off
Versions: 1 2 3 4 5 6 7 8 9 10 11 12 13 14 15 16 17 18 19 20 21 22 23 24 25 26 27 28 29 30 31 32 33 34 35 36 37 38 39 40 41 42 43 44 45 46 47 48 49 50

000
ASUS43 KTOP 172008
RWRKS

WEATHER ROUNDUP FOR KANSAS
NATIONAL WEATHER SERVICE GOODLAND KS
200 PM CST SUN DEC 17 2017

NOTE:  "FAIR" INDICATES FEW OR NO CLOUDS BELOW 12,000 FEET WITH NO
SIGNIFICANT WEATHER AND/OR OBSTRUCTIONS TO VISIBILITY.

KSZ001>006-013>018-027>032-041>047-172100-
NORTHWEST KANSAS

CITY           SKY/WX    TMP DP  RH WIND       PRES   REMARKS
GOODLAND       CLOUDY    38  28  67 N7        29.97F
HAYS           MOSUNNY   45  28  51 N16       29.97F
HILL CITY      CLOUDY    43  31  62 N12       29.98F
RUSSELL        SUNNY     46  30  53 N12       29.96F
$$

KSZ061>065-074>080-084>089-172100-
SOUTHWEST KANSAS

CITY           SKY/WX    TMP DP  RH WIND       PRES   REMARKS
DODGE CITY     SUNNY     46  27  47 N16G23    29.98F
ELKHART        SUNNY     46  32  57 N10       29.98F
GARDEN CITY    MOSUNNY   44  28  53 NW14      29.99F
GREAT BEND     SUNNY     47  30  51 NW8       29.98R
LIBERAL        SUNNY     47  29  49 N13       29.98F
PRATT          SUNNY     48  30  49 NW7       29.98R
$$

KSZ066>073-081>083-090>101-172100-
SOUTHEAST KANSAS

CITY           SKY/WX    TMP DP  RH WIND       PRES   REMARKS
CHANUTE        CLOUDY    46  44  93 S8        30.01F
COFFEYVILLE    LGT RAIN  46  45  96 SW6       30.02F FOG
HUTCHINSON     SUNNY     52  39  61 W3        29.95F
MEDICINE LODGE   N/A     50  33  52 SW7       29.99R
NEWTON         CLOUDY    50  41  71 S6        29.96F
PARSONS        CLOUDY    46  45  96 S7        30.02F FOG
WICHITA INTL   CLOUDY    47  40  76 S9        29.98S
WICHITA JABRA  CLOUDY    47  41  80 S8        29.98S
WICHITA MCCONL CLOUDY    46  39  78 SW10      29.98S
WINFIELD       CLOUDY    47  42  83 SW8       30.00F
$$

KSZ007>012-019>026-033>040-048>060-102>105-172100-
NORTHEAST KANSAS

CITY           SKY/WX    TMP DP  RH WIND       PRES   REMARKS
CONCORDIA      SUNNY     47  33  58 NW7       29.96R
EMPORIA        CLOUDY    53  41  63 VRB3      29.96F
LAWRENCE       CLOUDY    50  44  80 CALM      29.97R
MANHATTAN      PTSUNNY   53  41  63 VRB5      29.95S
MARYSVILLE     CLOUDY    41  36  81 NW6       29.96S
OLATHE IND     CLOUDY    47  44  90 SW7       29.98R
OLATHE EXE     CLOUDY    46  43  89 SW7       29.98R
SALINA         SUNNY     53  38  56 VRB3      29.96F
TOPEKA BILLARD PTSUNNY   50  44  80 SW3       29.97R
TOPEKA FORBES  PTSUNNY   51  42  71 CALM      29.97R
$$




USA.gov is the U.S. government's official web portal to all federal, state and local government web resources and services.